Location: Tyler Bend Campground
(35.9875°N, 92.7606°W)
Time: 12:14:37
(UTC-05:00)

CZ-2C R/B - Visible Passes

Search period start: 21 April 2018 00:00
Search period end: 01 May 2018 00:00
Orbit: 668 x 785 km, 98.1° (Epoch: 20 April)

Date Brightness Start Highest point End Pass type
(mag) Time Alt. Az. Time Alt. Az. Time Alt. Az.
21 Apr 5.4 05:14:55 10° ENE 05:16:37 12° E 05:18:18 10° ESE visible
23 Apr 5.3 05:16:51 10° ENE 05:18:50 13° E 05:20:49 10° ESE visible
25 Apr 5.2 05:18:50 10° ENE 05:21:04 13° E 05:23:17 10° ESE visible
27 Apr 5.2 05:20:50 10° ENE 05:23:17 14° E 05:25:44 10° SE visible
29 Apr 5.1 05:22:52 10° ENE 05:25:31 15° E 05:28:08 10° SE visible
